Pompano Beach, FL

5:13 PM EDT on July 26, 2017 (GMT -0400)
Pompano Beach

Weather History for KPMP - June, 2012

Change the Weather History Date:

Tuesday, June 5, 2012

  Actual Average Record
Temperature  
Mean Temperature 85 °F -  
Max Temperature 93 °F 90 °F 95 °F (1967)
Min Temperature 79 °F 72 °F 65 °F (1951)
Cooling Degree Days 20    
Growing Degree Days 35 (Base 50)    
Moisture  
Dew Point 73 °F    
Average Humidity 71    
Maximum Humidity 94    
Minimum Humidity 46    
Precipitation  
Precipitation 0.00 in - - ()
Sea Level Pressure  
Sea Level Pressure 29.88 in    
Wind  
Wind Speed 7 mph (West)    
Max Wind Speed 17 mph    
Max Gust Speed 22 mph    
Visibility 10 miles    
Events      
Averages and records for this station are not official NWS values.
T = Trace of Precipitation, MM = Missing Value Source: NWS Daily Summary

Daily Weather History Graph

Daily Weather History Graph

Search for Another Location

Airport or City:

Trip Planner

Search our weather history database for the weather conditions in past years. The results will help you decide how hot, cold, wet, or windy it might be!

Date:

Astronomy

Jun. 05, 2012 Rise Set
Actual Time 6:27 AM EDT 8:10 PM EDT
Civil Twilight 6:01 AM EDT 8:36 PM EDT
Nautical Twilight 5:30 AM EDT 9:07 PM EDT
Astronomical Twilight 4:57 AM EDT 9:40 PM EDT
Moon 9:38 PM EDT (6/5) 7:35 AM EDT (6/5)
Length of Visible Light 14h 35m
Length of Day
13h 43m
Full, 98% of the Moon is Illuminated
Jun 5
Full
Jun 11
Last Quarter
Jun 19
New
Jun 26
First Quarter
Jul 3
Full

Hourly Weather History & Observations

Time (EDT) Temp. Heat Index Dew Point Humidity Pressure Visibility Wind Dir Wind Speed Gust Speed Precip Events Conditions
12:53 AM 80.1 °F 85.1 °F 75.0 °F 85% 29.89 in 10.0 mi WSW 8.1 mph - N/A   Clear
1:53 AM 80.1 °F 84.2 °F 73.0 °F 79% 29.87 in 10.0 mi WSW 6.9 mph - N/A   Clear
3:53 AM 79.0 °F - 75.0 °F 88% 29.85 in 10.0 mi SW 5.8 mph - N/A   Clear
4:53 AM 79.0 °F - 75.0 °F 88% 29.84 in 10.0 mi Calm Calm - N/A   Clear
5:53 AM 79.0 °F - 75.9 °F 90% 29.86 in 10.0 mi WSW 4.6 mph - N/A   Clear
6:53 AM 79.0 °F - 77.0 °F 94% 29.88 in 10.0 mi West 3.5 mph - 0.00 in   Partly Cloudy
7:53 AM 80.1 °F 86.4 °F 78.1 °F 94% 29.90 in 10.0 mi SW 4.6 mph - 0.00 in   Partly Cloudy
8:53 AM 81.0 °F 87.9 °F 77.0 °F 88% 29.91 in 10.0 mi WSW 8.1 mph - N/A   Partly Cloudy
9:53 AM 82.0 °F 89.4 °F 75.9 °F 82% 29.91 in 10.0 mi WSW 8.1 mph - N/A   Overcast
10:53 AM 82.9 °F 90.2 °F 75.0 °F 77% 29.91 in 10.0 mi West 9.2 mph - 0.00 in   Overcast
11:53 AM 86.0 °F 93.8 °F 73.9 °F 67% 29.91 in 10.0 mi WSW 16.1 mph 20.7 mph N/A   Partly Cloudy
12:53 PM 88.0 °F 94.7 °F 72.0 °F 59% 29.90 in 10.0 mi West 17.3 mph - N/A   Overcast
1:53 PM 90.0 °F 96.9 °F 72.0 °F 55% 29.88 in 10.0 mi West 12.7 mph 21.9 mph N/A   Scattered Clouds
2:53 PM 91.9 °F 96.9 °F 69.1 °F 47% 29.86 in 10.0 mi WSW 15.0 mph 21.9 mph N/A   Partly Cloudy
3:53 PM 91.0 °F 95.2 °F 68.0 °F 47% 29.85 in 10.0 mi WSW 12.7 mph - N/A   Clear
4:53 PM 90.0 °F 95.4 °F 70.0 °F 52% 29.85 in 10.0 mi NW 11.5 mph - N/A   Clear
5:53 PM 90.0 °F 92.8 °F 66.9 °F 46% 29.86 in 10.0 mi West 11.5 mph - N/A   Clear
6:53 PM 88.0 °F 90.7 °F 66.9 °F 49% 29.86 in 10.0 mi WSW 9.2 mph - N/A   Clear
7:53 PM 86.0 °F 90.7 °F 70.0 °F 59% 29.87 in 10.0 mi West 5.8 mph - N/A   Clear
8:53 PM 84.9 °F 89.4 °F 70.0 °F 61% 29.87 in 10.0 mi WNW 4.6 mph - N/A   Clear
9:53 PM 82.0 °F 87.9 °F 73.9 °F 76% 29.89 in 10.0 mi NE 3.5 mph - N/A   Clear
10:53 PM 82.0 °F 87.9 °F 73.9 °F 76% 29.91 in 10.0 mi Calm Calm - N/A   Clear
11:53 PM 81.0 °F 86.2 °F 73.9 °F 79% 29.91 in 10.0 mi Calm Calm - N/A   Clear